Find Starlink 3219

NORAD ID: 49724 Int'l Des: 2021-115 Owner: SPXS Country: US Constellation: starlink operational
LEOCIRCULAR

Live Position

Loading 3D Globe...

About Starlink 3219

Description loading...

Upcoming Passes

Passes for default location (London). Set your location on the main map for personalized predictions.

Altitude History

Loading altitude history...

Two-Line Element Set

1 49724U 21115A 26125.75201030 .00000851 00000-0 71504-4 0 9995
2 49724 53.2167 253.1792 0001265 89.1654 270.9483 15.08847685244148
Epoch: May 5, 2026 • Age: 13 hours

Current Status

Altitude 545.4 km
Velocity 7.60 km/s
Sub-Earth Point 53.16°N, 2.42°E
Launch Date Dec 2, 2021
Age 4.4 years
Type internet

Technical Details

Classification Payload
Mass 290.00 kg
Dry Mass 270.00 kg
Total Mass 290.00 kg
Length 0.20 m
Diameter 2.80 m
Span 9.00 m
Shape Box + pan
Manufacturer SPXS
Bus Type Starlink
Phase Status In Orbit
Owner/State SPXS/US

Most Searched